Flag for Netherlands Weather past 2 weeks in Hoofddorp, Netherlands

Now
66 °F

Clear.


Feels Like: 66 °F
Forecast: 63 / 72 °F
Wind: 10 mph from Northeast

Location: Amsterdam Schiphol Airport

Current Time: Jul 24, 2014 at 7:02:16 AM

Latest Report: Jul 24, 2014 at 6:25 AM


Visibility: 10 mi

Pressure: 30.04 "Hg

Humidity: 73%

Dew point: 57 °F

Location of HoofddorpLocation

Historic Weather in Hoofddorp — Graph

°F

Hoofddorp temperature yesterday

Maximum temperature yesterday: 82 °F (at 3:25 PM)
Minimum temperature yesterday: 68 °F (at 5:25 AM)
Average temperature yesterday: 75 °F

Past Weeks' High & Low Weather Summary

 TemperatureHumidityPressure
High93 °F (Jul 19, 3:55 PM)100% (Jul 9, 3:55 PM)30.18 "Hg (Jul 9, 3:55 PM)
Low57 °F (Jul 9, 6:55 AM)30% (Jul 19, 3:55 PM)29.71 "Hg (Jul 13, 2:55 PM)
Average69 °F79%29.95 "Hg
* Reported Jul 9 6:55 AM — Jul 24 5:55 AM, Hoofddorp, Weather by CustomWeather, © 2014

Note: Actual official high and low records may vary slightly from our data, if they occured in-between our weather recording intervals... More about our weather records

Advertising

Hoofddorp weather history for previous 24 hours

 ConditionsComfort  
Time TempWeatherWind HumidityBarometerVisibility
5:55 AM
Jul 24
66 °FClear.10 mph73%30.04 "Hg10 mi
5:25 AM66 °FClear.10 mph73%30.04 "Hg10 mi
4:55 AM66 °FClear.8 mph78%30.04 "Hg10 mi
4:25 AM66 °FPassing clouds.9 mph78%30.04 "HgN/A
3:55 AM68 °FClear.10 mph73%30.04 "Hg10 mi
2:55 AM70 °FClear.13 mph69%30.04 "Hg10 mi
2:25 AM70 °FPassing clouds.12 mph69%30.04 "HgN/A
1:55 AM70 °FPassing clouds.10 mph73%30.04 "HgN/A
1:25 AM70 °FClear.10 mph78%30.04 "Hg10 mi
12:55 AM70 °FClear.8 mph78%30.04 "Hg10 mi
12:25 AM70 °FClear.10 mph78%30.07 "Hg10 mi
11:55 PM
Jul 23
70 °FPassing clouds.10 mph78%30.07 "HgN/A
11:25 PM72 °FPassing clouds.10 mph73%30.07 "HgN/A
10:55 PM72 °FClear.12 mph73%30.07 "Hg10 mi
10:25 PM72 °FPassing clouds.14 mph73%30.07 "HgN/A
9:55 PM73 °FPassing clouds.13 mph69%30.04 "HgN/A
8:55 PM75 °FPassing clouds.14 mph65%30.04 "HgN/A
8:25 PM77 °FPassing clouds.16 mph57%30.04 "HgN/A
7:55 PM77 °FPassing clouds.13 mph54%30.04 "HgN/A
7:25 PM79 °FPassing clouds.17 mph51%30.04 "HgN/A
6:55 PM79 °FPassing clouds.17 mph48%30.04 "HgN/A
6:25 PM81 °FPassing clouds.18 mph48%30.04 "HgN/A
5:55 PM81 °FPassing clouds.18 mph51%30.04 "HgN/A
5:25 PM81 °FPassing clouds.18 mph45%30.07 "HgN/A
4:55 PM81 °FPassing clouds.21 mph48%30.07 "HgN/A
4:25 PM81 °FPassing clouds.20 mph45%30.07 "HgN/A
3:55 PM82 °FPassing clouds.18 mph48%30.07 "HgN/A
3:25 PM82 °FPassing clouds.18 mph45%30.07 "HgN/A
2:55 PM81 °FPassing clouds.20 mph48%30.09 "HgN/A
2:25 PM81 °FPassing clouds.21 mph45%30.09 "HgN/A
1:25 PM81 °FPassing clouds.16 mph48%30.09 "HgN/A
12:55 PM79 °FPassing clouds.15 mph51%30.09 "HgN/A
11:55 AM77 °FSunny.16 mph57%30.12 "Hg10 mi
11:25 AM77 °FPassing clouds.16 mph61%30.12 "HgN/A
10:55 AM75 °FPassing clouds.15 mph65%30.12 "HgN/A
10:25 AM73 °FPassing clouds.15 mph69%30.12 "HgN/A
9:55 AM73 °FPassing clouds.14 mph69%30.12 "HgN/A
7:55 AM70 °FPassing clouds.14 mph73%30.12 "HgN/A
7:25 AM70 °FSunny.14 mph73%30.12 "Hg10 mi
Weather by CustomWeather, © 2014

See weather overviewHow to use our weather pages